GW7159 Weather Reports


time (UTC)temp
C
wind
direction
speed
KPH
gust
KPH
rain 1hr
cm
rain 24hr
cm
rain mn
cm
humidity
%
barometer
mb
20260506213032 29 55 4.8 17.7 0.00 0.00 0.00 22 1018.3
20260506212509 30 30 8.0 17.7 0.00 0.00 0.00 22 1018.3
20260506212013 28 94 8.0 17.7 0.00 0.00 0.00 23 1018.4
20260506211530 28 36 9.7 17.7 0.00 0.00 0.00 24 1018.4
20260506211010 28 46 8.0 17.7 0.00 0.00 0.00 24 1018.4
20260506210509 28 41 3.2 22.5 0.00 0.00 0.00 23 1018.4
20260506210034 28 134 6.4 22.5 0.00 0.00 0.00 24 1018.4
20260506205511 28 56 9.7 16.1 0.00 0.00 0.00 24 1018.4
20260506205008 27 61 8.0 16.1 0.00 0.00 0.00 25 1018.4
20260506204545 28 55 9.7 16.1 0.00 0.00 0.00 25 1018.5
20260506204013 27 150 3.2 19.3 0.00 0.00 0.00 25 1018.6
20260506203513 27 318 8.0 19.3 0.00 0.00 0.00 25 1018.7
20260506203030 27 352 11.3 19.3 0.00 0.00 0.00 25 1018.7
20260506202509 27 58 9.7 16.1 0.00 0.00 0.00 25 1018.8
20260506202009 27 306 3.2 12.9 0.00 0.00 0.00 26 1018.7
20260506201533 26 94 3.2 14.5 0.00 0.00 0.00 26 1018.8
20260506201011 26 350 8.0 16.1 0.00 0.00 0.00 26 1018.9
20260506200508 26 5 4.8 16.1 0.00 0.00 0.00 24 1018.9
20260506200028 27 15 4.8 12.9 0.00 0.00 0.00 24 1018.8
20260506195509 26 287 3.2 16.1 0.00 0.00 0.00 26 1018.9
20260506195010 26 360 1.6 16.1 0.00 0.00 0.00 27 1019.1
20260506194528 26 326 8.0 12.9 0.00 0.00 0.00 29 1019.1
20260506194010 26 243 3.2 8.0 0.00 0.00 0.00 28 1019.1
20260506193509 25 231 1.6 17.7 0.00 0.00 0.00 28 1019.1
20260506193031 25 22 6.4 17.7 0.00 0.00 0.00 28 1019.2
20260506192511 26 5 6.4 17.7 0.00 0.00 0.00 28 1019.2
20260506192011 25 174 1.6 17.7 0.00 0.00 0.00 29 1019.2
20260506191530 25 330 3.2 14.5 0.00 0.00 0.00 29 1019.2
20260506191010 25 348 6.4 14.5 0.00 0.00 0.00 30 1019.3
20260506190509 25 241 6.4 9.7 0.00 0.00 0.00 29 1019.3
20260506190030 25 274 3.2 12.9 0.00 0.00 0.00 30 1019.3
20260506185510 24 352 6.4 12.9 0.00 0.00 0.00 30 1019.3
20260506185011 24 198 3.2 11.3 0.00 0.00 0.00 31 1019.3
20260506184531 23 24 3.2 12.9 0.00 0.00 0.00 35 1019.3
20260506184008 23 10 4.8 14.5 0.00 0.00 0.00 34 1019.4
20260506183509 23 360 8.0 14.5 0.00 0.00 0.00 34 1019.4
20260506183030 23 350 6.4 16.1 0.00 0.00 0.00 34 1019.4
20260506182510 23 250 4.8 16.1 0.00 0.00 0.00 34 1019.5
20260506182011 23 321 6.4 16.1 0.00 0.00 0.00 36 1019.5
20260506181529 22 5 3.2 9.7 0.00 0.00 0.00 36 1019.5
20260506181011 22 5 4.8 9.7 0.00 0.00 0.00 37 1019.5
20260506180517 22 325 3.2 8.0 0.00 0.00 0.00 36 1019.5
20260506180028 22 348 3.2 8.0 0.00 0.00 0.00 38 1019.5
20260506175509 21 15 3.2 8.0 0.00 0.00 0.00 39 1019.5
20260506175008 21 246 1.6 8.0 0.00 0.00 0.00 38 1019.6
20260506174529 20 311 1.6 8.0 0.00 0.00 0.00 39 1019.6
20260506174011 20 0 1.6 9.7 0.00 0.00 0.00 40 1019.7
20260506173510 20 65 3.2 9.7 0.00 0.00 0.00 40 1019.7
20260506173027 20 56 3.2 9.7 0.00 0.00 0.00 42 1019.7
20260506172510 19 305 1.6 8.0 0.00 0.00 0.00 41 1019.8
20260506172011 19 305 3.2 8.0 0.00 0.00 0.00 42 1019.8
20260506171538 18 360 1.6 9.7 0.00 0.00 0.00 41 1019.7
20260506171010 19 278 1.6 9.7 0.00 0.00 0.00 42 1019.7
20260506170509 18 275 3.2 9.7 0.00 0.00 0.00 42 1019.6
20260506170027 18 303 4.8 9.7 0.00 0.00 0.00 43 1019.6
20260506165511 18 0 0.0 4.8 0.00 0.00 0.00 44 1019.6
20260506165009 18 306 1.6 4.8 0.00 0.00 0.00 44 1019.6
20260506164530 17 36 1.6 6.4 0.00 0.00 0.00 45 1019.6
20260506164013 17 40 3.2 8.0 0.00 0.00 0.00 45 1019.6
20260506163511 17 47 4.8 8.0 0.00 0.00 0.00 45 1019.6
20260506163031 17 143 1.6 4.8 0.00 0.00 0.00 46 1019.7
20260506162508 17 113 3.2 8.0 0.00 0.00 0.00 48 1019.6
20260506162011 17 165 1.6 8.0 0.00 0.00 0.00 46 1019.6
20260506161537 17 145 3.2 6.4 0.00 0.00 0.00 48 1019.6
20260506161013 16 121 1.6 6.4 0.00 0.00 0.00 49 1019.6
20260506160511 16 82 3.2 11.3 0.00 0.00 0.00 49 1019.6
20260506160040 16 142 4.8 11.3 0.00 0.00 0.00 50 1019.7
20260506155511 16 100 3.2 6.4 0.00 0.00 0.00 52 1019.7
20260506155011 15 86 3.2 6.4 0.00 0.00 0.00 52 1019.7
20260506154532 15 133 0.0 6.4 0.00 0.00 0.00 53 1019.7
20260506154011 15 125 3.2 6.4 0.00 0.00 0.00 54 1019.7
20260506153509 15 124 1.6 6.4 0.00 0.00 0.00 55 1019.7
20260506153029 15 71 3.2 6.4 0.00 0.00 0.00 56 1019.6
20260506152509 14 110 0.0 3.2 0.00 0.00 0.00 57 1019.5
20260506152012 14 116 0.0 4.8 0.00 0.00 0.00 56 1019.6
20260506151535 14 129 0.0 4.8 0.00 0.00 0.00 57 1019.6
20260506151013 13 178 0.0 3.2 0.00 0.00 0.00 57 1019.6
20260506150513 13 111 1.6 4.8 0.00 0.00 0.00 59 1019.6
20260506150033 13 141 1.6 4.8 0.00 0.00 0.00 59 1019.5
20260506145507 13 138 3.2 4.8 0.00 0.00 0.00 60 1019.5
20260506145012 13 221 1.6 6.4 0.00 0.00 0.00 59 1019.6
20260506144529 13 204 1.6 8.0 0.00 0.00 0.00 61 1019.5
20260506144018 12 223 1.6 12.9 0.00 0.00 0.00 62 1019.5
20260506143510 12 213 3.2 12.9 0.00 0.00 0.00 64 1019.5
20260506143041 12 227 4.8 9.7 0.00 0.00 0.00 65 1019.3
20260506142509 11 293 3.2 9.7 0.00 0.00 0.00 66 1019.3
20260506142009 11 235 3.2 14.5 0.00 0.00 0.00 66 1019.5
20260506141529 11 252 4.8 14.5 0.00 0.00 0.00 67 1019.3
20260506141009 11 236 4.8 12.9 0.00 0.00 0.00 68 1019.3
20260506140511 11 230 4.8 12.9 0.00 0.00 0.00 68 1019.3
20260506140033 11 262 4.8 12.9 0.00 0.00 0.00 68 1019.2
20260506135509 10 237 3.2 12.9 0.00 0.00 0.00 68 1019.2
20260506135009 10 265 3.2 14.5 0.00 0.00 0.00 69 1019.2
20260506134531 10 232 6.4 14.5 0.00 0.00 0.00 70 1019.1
20260506134014 10 225 4.8 12.9 0.00 0.00 0.00 71 1018.9
20260506133510 10 220 6.4 12.9 0.00 0.00 0.00 71 1018.9
20260506133031 10 222 3.2 12.9 0.00 0.00 0.00 71 1018.8
20260506132516 10 203 6.4 12.9 0.00 0.00 0.00 72 1018.8
20260506132009 10 217 4.8 14.5 0.00 0.00 0.00 72 1018.8
20260506131529 9 225 4.8 16.1 0.00 0.00 0.00 72 1018.7
20260506131008 9 249 6.4 16.1 0.00 0.00 0.00 73 1018.7
20260506130515 9 225 8.0 16.1 0.00 0.00 0.00 73 1018.7
20260506130030 9 229 6.4 16.1 0.00 0.00 0.00 73 1018.7
20260506125508 9 232 6.4 16.1 0.00 0.00 0.00 73 1018.7
20260506125008 9 233 8.0 16.1 0.00 0.00 0.00 73 1018.7
20260506124529 9 231 8.0 14.5 0.00 0.00 0.00 72 1018.8
20260506124010 9 242 6.4 9.7 0.00 0.00 0.00 72 1018.8
20260506123510 9 235 1.6 3.2 0.00 0.00 0.00 71 1018.8
20260506123029 10 0 0.0 4.8 0.00 0.00 0.00 70 1018.8
20260506122509 10 257 1.6 9.7 0.00 0.00 0.00 70 1018.7
20260506122013 10 252 3.2 12.9 0.00 0.00 0.00 70 1018.7
20260506121528 10 238 4.8 12.9 0.00 0.00 0.00 70 1018.6
20260506121009 10 261 6.4 12.9 0.00 0.00 0.00 70 1018.6
20260506120514 10 252 4.8 12.9 0.00 0.00 0.00 70 1018.5
20260506120032 10 232 3.2 14.5 0.00 0.00 0.00 69 1018.5
20260506115511 10 232 6.4 17.7 0.00 0.00 0.00 69 1018.4
20260506115012 10 247 8.0 17.7 0.00 0.00 0.00 69 1018.4
20260506114539 10 234 6.4 17.7 0.00 0.00 0.00 68 1018.3
20260506114007 10 252 6.4 12.9 0.00 0.00 0.00 68 1018.3
20260506113512 10 225 4.8 12.9 0.00 0.00 0.00 69 1018.3
20260506113030 10 257 4.8 16.1 0.00 0.00 0.00 69 1018.2
20260506112511 10 220 6.4 16.1 0.00 0.00 0.00 68 1018.2
20260506112012 10 231 6.4 19.3 0.00 0.00 0.00 68 1018.2
20260506111527 10 240 4.8 20.9 0.00 0.00 0.00 67 1018.3
20260506111008 10 234 11.3 20.9 0.00 0.00 0.00 67 1018.3
20260506110516 10 246 8.0 20.9 0.00 0.00 0.00 67 1018.2
20260506110035 10 225 8.0 20.9 0.00 0.00 0.00 67 1018.3
20260506105511 11 236 11.3 27.4 0.00 0.00 0.00 66 1018.2
20260506105013 11 252 9.7 27.4 0.00 0.00 0.00 66 1018.2
20260506104531 11 293 11.3 24.1 0.00 0.00 0.00 66 1018.2
20260506104007 11 268 8.0 19.3 0.00 0.00 0.00 66 1018.2
20260506103511 11 242 8.0 19.3 0.00 0.00 0.00 66 1018.1
20260506103030 11 264 11.3 19.3 0.00 0.00 0.00 66 1018.0
20260506102509 11 224 8.0 27.4 0.00 0.00 0.00 66 1018.1
20260506102009 11 276 9.7 27.4 0.00 0.00 0.00 66 1018.1
20260506101545 11 243 12.9 27.4 0.00 0.00 0.00 66 1018.1
20260506101013 11 260 12.9 24.1 0.00 0.00 0.00 67 1018.0
20260506100513 11 256 9.7 22.5 0.00 0.00 0.00 66 1018.0
20260506100028 11 228 8.0 22.5 0.00 0.00 0.00 67 1017.9
20260506095512 11 276 9.7 25.7 0.00 0.00 0.00 67 1018.0
20260506095011 11 211 11.3 25.7 0.00 0.00 0.00 66 1018.0
20260506094528 11 246 11.3 22.5 0.00 0.00 0.00 67 1017.9
20260506094010 11 259 11.3 22.5 0.00 0.00 0.00 67 1018.0
20260506093514 11 230 6.4 17.7 0.00 0.00 0.00 67 1018.0
20260506093028 11 241 8.0 17.7 0.00 0.00 0.00 67 1017.9
20260506092510 10 248 4.8 14.5 0.00 0.00 0.00 67 1018.0
20260506092014 10 205 6.4 17.7 0.00 0.00 0.00 67 1017.9
20260506091530 11 223 8.0 20.9 0.00 0.00 0.00 66 1018.0
20260506091010 11 265 9.7 25.7 0.00 0.00 0.00 65 1018.0
20260506090507 11 207 9.7 25.7 0.00 0.00 0.00 65 1017.9
20260506090030 11 237 9.7 22.5 0.00 0.00 0.00 65 1018.0
20260506085509 11 225 9.7 17.7 0.00 0.00 0.00 65 1018.1
20260506085012 11 205 6.4 16.1 0.00 0.00 0.00 65 1018.2
20260506084530 11 261 8.0 17.7 0.00 0.00 0.00 64 1018.2
20260506084009 11 249 4.8 17.7 0.00 0.00 0.00 63 1018.2
20260506083512 11 238 4.8 17.7 0.00 0.00 0.00 63 1018.1
20260506083029 11 220 8.0 24.1 0.00 0.00 0.00 64 1018.1
20260506082509 11 240 4.8 24.1 0.00 0.00 0.00 64 1018.2
20260506082014 11 219 9.7 27.4 0.00 0.00 0.00 64 1018.1
20260506081528 11 242 9.7 27.4 0.00 0.00 0.00 64 1018.2
20260506081013 11 234 9.7 25.7 0.00 0.00 0.00 63 1018.3
20260506080511 11 229 11.3 25.7 0.00 0.00 0.00 63 1018.3
20260506073509 11 269 9.7 22.5 0.00 0.00 0.00 65 1018.3
20260506073028 11 221 9.7 22.5 0.00 0.00 0.00 65 1018.3
20260506072517 11 218 11.3 25.7 0.00 0.00 0.00 64 1018.3
20260506072009 11 247 9.7 25.7 0.00 0.00 0.00 64 1018.2
20260506071530 11 252 8.0 19.3 0.00 0.00 0.00 64 1018.2
20260506071010 11 241 6.4 17.7 0.00 0.00 0.00 63 1018.2
20260506070509 11 247 8.0 24.1 0.00 0.00 0.00 64 1018.1
20260506062511 11 244 8.0 19.3 0.00 0.00 0.00 65 1017.6
20260506062009 11 185 9.7 20.9 0.00 0.00 0.00 65 1017.6
20260506061530 11 229 8.0 20.9 0.00 0.00 0.00 65 1017.6
20260506061016 11 198 11.3 20.9 0.00 0.00 0.00 65 1017.5
20260506060510 11 209 8.0 16.1 0.00 0.00 0.00 65 1017.7
20260506051012 11 225 6.4 12.9 0.00 0.00 0.00 65 1017.4
20260506050513 11 244 4.8 17.7 0.00 0.00 0.00 64 1017.5
20260506045009 11 188 8.0 14.5 0.00 0.00 0.00 65 1017.2
20260506044528 11 190 6.4 20.9 0.00 0.00 0.00 65 1017.2
20260506044017 11 219 6.4 20.9 0.00 0.00 0.00 65 1017.0
20260506043510 11 217 8.0 19.3 0.00 0.00 0.00 65 1016.9
20260506043028 11 210 8.0 19.3 0.00 0.00 0.00 65 1016.9
20260506042510 11 201 6.4 17.7 0.00 0.00 0.00 65 1016.8
20260506042019 11 227 9.7 19.3 0.00 0.00 0.00 64 1016.8
20260506041537 11 251 9.7 19.3 0.00 0.00 0.00 65 1016.8
20260506041009 11 254 8.0 17.7 0.00 0.00 0.00 64 1016.8
20260506040513 11 211 6.4 19.3 0.00 0.00 0.00 64 1016.9
20260506040031 12 240 6.4 19.3 0.00 0.00 0.00 64 1016.8
20260506035508 12 230 6.4 17.7 0.00 0.00 0.00 63 1016.7
20260506035010 12 240 4.8 17.7 0.00 0.00 0.00 63 1016.7
20260506034530 12 224 6.4 17.7 0.00 0.00 0.00 63 1016.6
20260506034009 12 229 8.0 16.1 0.00 0.00 0.00 63 1016.6
20260506033509 12 240 3.2 14.5 0.00 0.00 0.00 63 1016.5
20260506033031 12 248 6.4 16.1 0.00 0.00 0.00 63 1016.6
20260506032513 12 194 6.4 16.1 0.00 0.00 0.00 63 1016.6
20260506032010 12 195 6.4 16.1 0.00 0.00 0.00 63 1016.5
20260506031531 12 179 6.4 16.1 0.00 0.00 0.00 62 1016.5
20260506031009 12 236 8.0 16.1 0.00 0.00 0.00 62 1016.3
20260506030513 12 207 4.8 11.3 0.00 0.00 0.00 61 1016.2
20260506030033 12 244 4.8 16.1 0.00 0.00 0.00 61 1016.2
20260506025508 12 233 6.4 17.7 0.00 0.00 0.00 61 1016.1
20260506025010 12 223 8.0 19.3 0.00 0.00 0.00 61 1016.1
20260506024527 12 230 8.0 19.3 0.00 0.00 0.00 61 1016.1
20260506024010 13 237 8.0 19.3 0.00 0.00 0.00 61 1015.9
20260506023510 13 221 9.7 19.3 0.00 0.00 0.00 60 1015.8
20260506023029 13 283 8.0 22.5 0.00 0.00 0.00 60 1015.8
20260506022509 13 271 8.0 22.5 0.00 0.00 0.00 59 1015.7
20260506022011 13 231 9.7 19.3 0.00 0.00 0.00 59 1015.6
20260506021528 13 236 8.0 22.5 0.00 0.00 0.00 59 1015.7
20260506021010 13 267 12.9 24.1 0.00 0.00 0.00 58 1015.6
20260506020513 13 265 14.5 24.1 0.00 0.00 0.00 59 1015.5
20260506020030 13 241 8.0 25.7 0.00 0.00 0.00 58 1015.5
20260506015510 14 248 12.9 25.7 0.00 0.00 0.00 58 1015.5
20260506015010 14 259 11.3 25.7 0.00 0.00 0.00 57 1015.4
20260506014541 14 248 11.3 25.7 0.00 0.00 0.00 57 1015.5
20260506014009 15 253 11.3 24.1 0.00 0.00 0.00 56 1015.5
20260506013510 15 259 8.0 24.1 0.00 0.00 0.00 57 1015.5
20260506013030 15 236 12.9 29.0 0.00 0.00 0.00 56 1015.5
20260506012510 15 199 12.9 29.0 0.00 0.00 0.00 56 1015.6
20260506012009 15 260 14.5 29.0 0.00 0.00 0.00 54 1015.4
20260506011528 15 247 12.9 25.7 0.00 0.00 0.00 54 1015.4
20260506011008 15 259 14.5 30.6 0.00 0.00 0.00 54 1015.3
20260506010510 15 240 12.9 30.6 0.00 0.00 0.00 53 1015.4
20260506010030 15 212 12.9 27.4 0.00 0.00 0.00 53 1015.4
20260506005510 15 242 14.5 27.4 0.00 0.00 0.00 53 1015.3
20260506005015 16 300 16.1 27.4 0.00 0.00 0.00 52 1015.2
20260506004537 16 232 12.9 27.4 0.00 0.00 0.00 52 1015.1
20260506004010 16 251 14.5 27.4 0.00 0.00 0.00 52 1015.0
20260506003510 16 242 16.1 27.4 0.00 0.00 0.00 51 1014.9
20260506003027 16 213 17.7 25.7 0.00 0.00 0.00 49 1014.9
20260506002511 16 268 11.3 29.0 0.00 0.00 0.00 50 1014.8
20260506002010 16 219 11.3 35.4 0.00 0.00 0.00 50 1014.8
20260506001528 17 234 14.5 32.2 0.00 0.00 0.00 49 1014.7
20260506001008 17 264 12.9 30.6 0.00 0.00 0.00 48 1014.7
20260506000509 17 265 14.5 27.4 0.00 0.00 0.00 48 1014.6
20260506000036 17 258 17.7 27.4 0.00 0.00 0.00 47 1014.6
20260505235514 17 230 12.9 32.2 0.00 0.00 0.00 47 1014.5
20260505235010 17 206 20.9 32.2 0.00 0.00 0.00 46 1014.5
20260505234528 17 223 14.5 33.8 0.00 0.00 0.00 45 1014.5
20260505234006 17 204 19.3 33.8 0.00 0.00 0.00 46 1014.4
20260505233516 18 245 17.7 33.8 0.00 0.00 0.00 45 1014.5
20260505233027 18 248 12.9 30.6 0.00 0.00 0.00 45 1014.5
20260505232512 18 227 14.5 30.6 0.00 0.00 0.00 45 1014.3
20260505232007 18 219 12.9 37.0 0.00 0.00 0.00 46 1014.3
20260505231529 17 250 14.5 37.0 0.00 0.00 0.00 46 1014.4
20260505231011 17 246 16.1 33.8 0.00 0.00 0.00 47 1014.5
20260505230514 18 215 12.9 33.8 0.00 0.00 0.00 47 1014.5
20260505230033 17 233 17.7 30.6 0.00 0.00 0.00 47 1014.5
20260505225511 17 251 12.9 30.6 0.00 0.00 0.00 47 1014.6
20260505225012 17 254 14.5 32.2 0.00 0.00 0.00 48 1014.5
20260505224536 17 252 12.9 32.2 0.00 0.00 0.00 48 1014.5
20260505224013 17 267 17.7 32.2 0.00 0.00 0.00 47 1014.6
20260505223514 18 208 17.7 30.6 0.00 0.00 0.00 46 1014.6
20260505223039 18 271 14.5 29.0 0.00 0.00 0.00 45 1014.7
20260505222507 18 216 12.9 29.0 0.00 0.00 0.00 45 1014.7
20260505222012 18 267 16.1 27.4 0.00 0.00 0.00 44 1014.5
20260505221529 18 277 16.1 27.4 0.00 0.00 0.00 44 1014.5
20260505221012 18 257 16.1 27.4 0.00 0.00 0.00 46 1014.6
20260505220508 17 239 16.1 30.6 0.00 0.00 0.00 45 1014.7
20260505220037 18 213 14.5 30.6 0.00 0.00 0.00 44 1014.7
20260505215515 18 229 16.1 30.6 0.00 0.00 0.00 44 1014.7
20260505215009 18 244 9.7 29.0 0.00 0.00 0.00 44 1014.7
20260505214547 18 257 16.1 29.0 0.00 0.00 0.00 44 1014.7
20260505214010 18 259 14.5 30.6 0.00 0.00 0.00 44 1014.7
20260505213510 18 245 12.9 30.6 0.00 0.00 0.00 44 1014.9